Regional Weather Roundup
Issued by NWS State College, PA

Home | Current Version | Previous Version | Text Only | Print | Product List | Glossary On
Versions: 1 2 3 4 5 6 7 8 9 10 11 12 13 14 15 16 17 18 19 20 21 22 23 24 25 26 27 28 29 30 31 32 33 34 35 36 37 38 39 40 41 42 43 44 45 46 47 48 49 50
637
ASUS41 KCTP 241510
RWRCTP

REGIONAL WEATHER ROUNDUP
NATIONAL WEATHER SERVICE STATE COLLEGE PA
1100 AM EDT TUE MAY 24 2016

Note: "fair" indicates few or no clouds below 12,000 feet with no
significant weather and/or obstructions to visibility.

* = STATION THAT DOES NOT REPORT PRECIPITATION /E.G. RAIN...SNOW...ETC/
    THUNDER OR FOG.

PAZ002>004-007>009-013>016-020>023-029>032-241600-
WESTERN PENNSYLVANIA

CITY           SKY/WX    TMP DP  RH WIND       PRES   REMARKS
ERIE           SUNNY     70  47  43 W14       30.07S
MEADVILLE      SUNNY     68  46  45 W7        30.09S
FRANKLIN*      SUNNY     70  46  43 W9        30.11S
NEW CASTLE     FAIR      73  51  46 W8        30.10S
BEAVER COUNTY  SUNNY     72  52  49 CALM      30.10R
BUTLER*        SUNNY     70  52  52 W8        30.13S
PITTSBURGH INT MOSUNNY   72  50  45 W10       30.09F
PITTSBURGH     SUNNY     70  50  49 W5        30.09F
INDIANA*       SUNNY     68  55  64 W5        30.12F
LATROBE        SUNNY     66  57  72 W12       30.11S
WASHINGTON CO* SUNNY     72  54  53 SW7       30.11S
$$

PAZ004>006-010>012-017>019-024>028-033>037-041-042-045-046-049>053-241600-
CENTRAL PENNSYLVANIA

CITY           SKY/WX    TMP DP  RH WIND       PRES   REMARKS
BRADFORD         N/A    N/A N/A N/A NW15      30.06F
DUBOIS         SUNNY     69  49  48 W7        30.07S
CLEARFIELD     SUNNY     71  50  47 S5        30.05F
JOHNSTOWN      SUNNY     66  45  46 NW8       30.10S
ALTOONA        SUNNY     71  46  40 VRB7      30.07S
STATE COLLEGE  SUNNY     73  46  38 N8        30.03F
WILLIAMSPORT   SUNNY     74  51  44 W8        29.97F
SELINSGROVE    SUNNY     73  52  47 SE5       29.98F
FT INDIANTOWN  SUNNY     74  47  38 W8        29.97S
CAPITAL CITY   SUNNY     76  47  35 N6        29.99S
HARRISBURG     MOSUNNY   75  49  39 NW10      29.98S
YORK           SUNNY     75  50  41 NW9       30.00S
$$

PAZ038>040-043-044-047-048-054-055-060>062-067>071-241600-
EASTERN PENNSYLVANIA

CITY           SKY/WX    TMP DP  RH WIND       PRES   REMARKS
SCRANTON       SUNNY     72  47  40 W8        29.96S
MOUNT POCONO   CLOUDY    61  40  45 NW8       29.97R
ALLENTOWN      MOSUNNY   73  50  44 S5        29.95S
QUAKERTOWN*    MOSUNNY   70  54  56 W7        29.97S
READING        SUNNY     75  51  43 W7        29.96S
LANCASTER      SUNNY     73  52  47 NW9       29.98S
COATESVILLE      N/A    N/A N/A N/A MISG        N/A
POTTSTOWN      SUNNY     69  53  56 VRB3      29.97S
BLUE BELL      MOSUNNY   68  55  64 CALM      29.95S
DOYLESTOWN     CLOUDY    69  50  50 VRB3      29.94S
WILLOW GROVE   NOT AVBL
NORTH PHILA    CLOUDY    70  56  61 NE5       29.97S
PHILADELPHIA   PTSUNNY   70  55  59 S7        29.96R
$$




USA.gov is the U.S. government's official web portal to all federal, state and local government web resources and services.